Showing default

HAWK-11B, 62379

Orbit data source: Space-Track

HAWK-11B, 62379 is a payload satellite owned by HawkEye 360 (US) in LEO that was launched on Sat, 21 Dec 2024 UTC via an FALCON 9 launch vehicle from the Air Force Western Test Range (AFWTR). Payload-class satellites include a variety of spacecraft equipped with specific instruments for various scientific and technological missions. These include communications satellites like Starlink; space stations such as the ISS; scientific satellites like the Hubble; Earth observation satellites from companies like Planet Labs, Umbra, and HawkEye 360; GPS; miniature CubeSats for education and research; and military/defense satellites.

Loading next visibility...
Identifier
62379, 2024-247C
Orbit
LEO
Country
Flag of USUS
Related business
Manufacturer
UTIAS-SFL
Mission
Operational Commercial Sigint
Bus & Motor
HAWK2G, Unknown motor
Mass
31 kg wet, 30 kg dry
Launch date (UTC)
2024-12-21 (1 year ago)
Launch vehicle
FALCON 9
Launch site
Air Force Western Test Range (AFWTR)
Object type
Payload
Rocket body
Debris
Shape & HBR
Box + 2 Pan, 1.0 m
Radar Cross Section
0.240 m², Medium (>0.1 m² and < 1m²)

Expand to show TLE details & history
Last TLE update: 16 hours ago

TLE from 16 hours ago
0 HAWK-11B
1 62379U 24247C   26094.05673879  .00014466  00000-0  50805-3 0  9994
2 62379  45.0182 335.6789 0003803 168.5546 191.5426 15.29347316 71657
Epoch: 2026-04-04T01:21Z
TLE epoch observation values (Epoch: 2026-04-04T01:21:42.231Z)
Latitude
0.00005°
Longitude
122.871°
Altitude
480.317 km
Speed
7.626 km/s
True Right ascension
22h 22m 42s
True Declination
0° 00' 00"
Sunlit
Object was in daylight at epoch
Visualization orbit readout
Latitude
Unknown
Longitude
Unknown
Altitude
Unknown
Speed
Unknown
Apparent Right ascension
Unknown
Apparent Declination
Unknown
Sunlit
N/A
Visualization observer readout
Local Sidereal Time
23:30:54
Azimuth
Unknown
Elevation
Unknown
Doppler factor
Unknown
Orbital elements
Apogee altitude
481.978 km
Perigee altitude
476.762 km
Semi-major axis
6,857.507 km
Eccentricity
0.00038
Inclination
45.0182°
RAAN
335.6789°
Arg. of periapsis
168.5546°
True anomaly
191.53388°
Mean anomaly
191.5426°
Eccentric anomaly
191.53824°
Mean motion
3.82203 °/min
Orbital period
94.19 mins
BSTAR
0.00050805
Loading maneuver chart data...
Computing Atmospheric mass density...
Loading historical data...
Loading historical data...
Loading historical data...
Loading historical data...
Loading historical data...
Loading historical data...
Loading historical data...

Documentation

Showing up to 5 results
|